TimeCDT,TemperatureF,Dew PointF,Humidity,Sea Level PressureIn,VisibilityMPH,Wind Direction,Wind SpeedMPH,Gust SpeedMPH,PrecipitationIn,Events,Conditions,WindDirDegrees,DateUTC
12:15 AM,62.6,59.0,88,29.69,10.0,North,3.5,-,N/A,,Overcast,360,2012-10-25 05:15:00
12:35 AM,60.8,59.0,94,29.68,10.0,North,3.5,-,N/A,,Overcast,10,2012-10-25 05:35:00
12:55 AM,60.8,59.0,94,29.67,7.0,ENE,3.5,-,N/A,Rain,Rain,60,2012-10-25 05:55:00
1:15 AM,60.8,59.0,94,29.64,5.0,ENE,5.8,-,N/A,Rain,Rain,60,2012-10-25 06:15:00
1:35 AM,60.8,59.0,94,29.63,4.0,North,4.6,-,N/A,Rain,Rain,10,2012-10-25 06:35:00
1:55 AM,60.8,59.0,94,29.64,4.0,North,3.5,-,N/A,Rain,Heavy Rain,10,2012-10-25 06:55:00
2:35 AM,60.8,59.0,94,29.60,5.0,ESE,10.4,-,N/A,,Overcast,110,2012-10-25 07:35:00
2:55 AM,57.2,55.4,94,29.63,10.0,WNW,11.5,-,N/A,Rain,Light Rain,300,2012-10-25 07:55:00
3:15 AM,57.2,55.4,94,29.64,10.0,NNW,8.1,-,N/A,,Mostly Cloudy,340,2012-10-25 08:15:00
3:35 AM,55.4,53.6,94,29.62,10.0,North,4.6,-,N/A,Rain,Rain,10,2012-10-25 08:35:00
3:55 AM,55.4,53.6,94,29.64,7.0,East,5.8,-,N/A,Rain,Light Rain,90,2012-10-25 08:55:00
4:15 AM,55.4,53.6,94,29.59,10.0,NE,9.2,-,N/A,Rain,Light Rain,50,2012-10-25 09:15:00
4:35 AM,55.4,53.6,94,29.61,10.0,ESE,8.1,-,N/A,Rain,Light Rain,110,2012-10-25 09:35:00
4:55 AM,55.4,53.6,94,29.61,10.0,ENE,5.8,-,N/A,Rain,Light Rain,60,2012-10-25 09:55:00
5:15 AM,55.4,53.6,94,29.57,10.0,ENE,6.9,-,N/A,Rain,Light Rain,60,2012-10-25 10:15:00
5:35 AM,55.4,53.6,94,29.56,10.0,ENE,5.8,-,N/A,Rain,Light Rain,60,2012-10-25 10:35:00
5:55 AM,55.4,53.6,94,29.55,10.0,ENE,4.6,-,N/A,Rain,Light Rain,60,2012-10-25 10:55:00
6:55 AM,57.2,55.4,94,29.54,7.0,NNW,3.5,9.2,N/A,Rain,Rain,330,2012-10-25 11:55:00
7:15 AM,57.2,55.4,94,29.53,4.0,Calm,Calm,-,N/A,Rain,Rain,0,2012-10-25 12:15:00
7:35 AM,57.2,55.4,94,29.47,2.0,East,9.2,-,N/A,Rain,Light Rain,90,2012-10-25 12:35:00
7:55 AM,55.4,53.6,94,29.59,1.2,WSW,17.3,48.3,N/A,Rain,Heavy Rain,250,2012-10-25 12:55:00
8:35 AM,51.8,48.2,88,29.51,10.0,North,9.2,16.1,N/A,Rain,Light Rain,360,2012-10-25 13:35:00
8:55 AM,51.8,48.2,88,29.55,3.0,NNE,3.5,-,N/A,Rain,Heavy Rain,30,2012-10-25 13:55:00
9:15 AM,51.8,48.2,88,29.54,10.0,Calm,Calm,-,N/A,Rain,Light Rain,0,2012-10-25 14:15:00
9:55 AM,51.8,50.0,94,29.54,10.0,Calm,Calm,-,N/A,Rain,Light Rain,0,2012-10-25 14:55:00
10:55 AM,51.8,50.0,94,29.54,10.0,WNW,6.9,11.5,N/A,Rain,Rain,300,2012-10-25 15:55:00
11:15 AM,51.8,48.2,88,29.53,10.0,NW,6.9,-,N/A,Rain,Rain,320,2012-10-25 16:15:00
11:35 AM,50.0,48.2,94,29.55,10.0,NNW,3.5,-,N/A,Rain,Light Rain,330,2012-10-25 16:35:00
11:55 AM,50.0,48.2,94,29.54,10.0,NW,10.4,-,N/A,Rain,Light Rain,310,2012-10-25 16:55:00
12:15 PM,50.0,48.2,94,29.56,7.0,WNW,5.8,17.3,N/A,Rain,Light Rain,290,2012-10-25 17:15:00
12:35 PM,48.2,46.4,93,29.56,5.0,NW,12.7,-,N/A,Rain,Light Rain,310,2012-10-25 17:35:00
12:55 PM,48.2,46.4,93,29.56,5.0,NW,18.4,-,N/A,Rain,Light Rain,310,2012-10-25 17:55:00
1:35 PM,46.4,44.6,93,29.58,3.0,NW,16.1,20.7,N/A,Rain,Light Rain,310,2012-10-25 18:35:00
1:55 PM,46.4,42.8,87,29.59,3.0,WNW,20.7,27.6,N/A,Rain,Rain,300,2012-10-25 18:55:00
2:15 PM,42.8,41.0,93,29.61,4.0,WNW,13.8,23.0,N/A,Rain,Light Rain,300,2012-10-25 19:15:00
2:35 PM,42.8,39.2,87,29.63,5.0,NW,15.0,23.0,N/A,Rain,Rain,310,2012-10-25 19:35:00
3:15 PM,41.0,39.2,93,29.66,5.0,NW,20.7,28.8,N/A,,Light Drizzle,310,2012-10-25 20:15:00
3:35 PM,41.0,37.4,87,29.66,10.0,NNW,17.3,25.3,N/A,,Overcast,330,2012-10-25 20:35:00
3:55 PM,39.2,37.4,93,29.68,10.0,NW,13.8,27.6,N/A,,Overcast,310,2012-10-25 20:55:00
4:15 PM,39.2,37.4,93,29.70,3.0,NW,13.8,25.3,N/A,,Overcast,310,2012-10-25 21:15:00
4:35 PM,39.2,37.4,93,29.72,2.5,WNW,19.6,27.6,N/A,,Overcast,300,2012-10-25 21:35:00
4:55 PM,39.2,35.6,87,29.73,2.0,NW,13.8,24.2,N/A,,Overcast,310,2012-10-25 21:55:00
5:15 PM,37.4,35.6,93,29.75,5.0,WNW,11.5,21.9,N/A,,Overcast,300,2012-10-25 22:15:00
5:35 PM,37.4,35.6,93,29.76,2.5,WNW,17.3,26.5,N/A,,Overcast,300,2012-10-25 22:35:00
5:55 PM,37.4,35.6,93,29.77,10.0,NW,16.1,26.5,N/A,,Light Drizzle,310,2012-10-25 22:55:00
6:15 PM,37.4,35.6,93,29.79,10.0,WNW,15.0,-,N/A,,Overcast,300,2012-10-25 23:15:00
6:35 PM,37.4,35.6,93,29.82,10.0,WNW,17.3,25.3,N/A,,Overcast,290,2012-10-25 23:35:00
6:55 PM,37.4,35.6,93,29.84,10.0,WNW,18.4,26.5,N/A,,Overcast,290,2012-10-25 23:55:00
7:15 PM,35.6,33.8,93,29.86,10.0,WNW,20.7,27.6,N/A,,Overcast,290,2012-10-26 00:15:00
7:35 PM,35.6,33.8,93,29.88,10.0,WNW,17.3,24.2,N/A,,Overcast,290,2012-10-26 00:35:00
7:55 PM,35.6,33.8,93,29.90,10.0,WNW,16.1,23.0,N/A,,Overcast,290,2012-10-26 00:55:00
8:15 PM,35.6,32.0,87,29.90,10.0,WNW,18.4,21.9,N/A,,Overcast,300,2012-10-26 01:15:00
8:35 PM,35.6,32.0,87,29.92,10.0,WNW,13.8,27.6,N/A,,Overcast,290,2012-10-26 01:35:00
8:55 PM,35.6,30.2,81,29.93,10.0,WNW,17.3,25.3,N/A,,Overcast,290,2012-10-26 01:55:00
9:15 PM,35.6,30.2,81,29.94,10.0,WNW,19.6,28.8,N/A,,Mostly Cloudy,290,2012-10-26 02:15:00
9:35 PM,35.6,30.2,81,29.95,10.0,WNW,18.4,23.0,N/A,,Scattered Clouds,300,2012-10-26 02:35:00
9:55 PM,35.6,30.2,81,29.95,10.0,WNW,11.5,-,N/A,,Clear,290,2012-10-26 02:55:00
10:15 PM,33.8,30.2,87,29.96,10.0,West,11.5,18.4,N/A,,Scattered Clouds,280,2012-10-26 03:15:00
10:35 PM,35.6,30.2,81,29.97,10.0,West,12.7,19.6,N/A,,Mostly Cloudy,280,2012-10-26 03:35:00
10:55 PM,35.6,30.2,81,29.98,10.0,WNW,13.8,19.6,N/A,,Overcast,290,2012-10-26 03:55:00
11:15 PM,35.6,28.4,75,29.99,10.0,West,16.1,19.6,N/A,,Mostly Cloudy,280,2012-10-26 04:15:00
11:35 PM,35.6,28.4,75,29.99,10.0,West,13.8,18.4,N/A,,Scattered Clouds,280,2012-10-26 04:35:00
11:55 PM,35.6,28.4,75,30.01,10.0,West,12.7,18.4,N/A,,Scattered Clouds,280,2012-10-26 04:55:00